Weather History for Kremmling, CO

Change the Weather History Date:

Thursday, February 7, 2013

  Actual Average (KEGE) Record (KEGE)
Temperature  
Mean Temperature 9 °F -  
Max Temperature 23 °F 36 °F 52 °F (1963)
Min Temperature -5 °F 5 °F -35 °F (1989)
Degree Days  
Heating Degree Days 56    
Moisture  
Dew Point 4 °F    
Average Humidity 78    
Maximum Humidity 93    
Minimum Humidity 58    
Precipitation  
Precipitation 0.00 in - - ()
Sea Level Pressure  
Sea Level Pressure 30.18 in    
Wind  
Wind Speed 1 mph (ESE)    
Max Wind Speed 5 mph    
Max Gust Speed -    
Averages and records for this station are not official NWS values.
T = Trace of Precipitation, MM = Missing Value Source: NWS Daily Summary

Daily Weather History Graph

Daily Weather History Graph

Search for Another Location

Airport:

Trip Planner

Search our weather history database for the weather conditions in past years. The results will help you decide how hot, cold, wet, or windy it might be!

Date:

Astronomy

Feb. 07, 2013 Rise Set
Actual Time 7:07 AM MST 5:32 PM MST
Civil Twilight 6:39 AM MST 6:00 PM MST
Nautical Twilight 6:07 AM MST 6:32 PM MST
Astronomical Twilight 5:35 AM MST 7:04 PM MST
Moon 4:49 AM MST (2/7) 2:59 PM MST (2/7)
Length of Visible Light 11h 21m
Length of Day
10h 24m
Waning Crescent, 8% of the Moon is Illuminated
Feb 7
Waning Crescent
Feb 10
New
Feb 17
First Quarter
Feb 25
Full
Mar 4
Last Quarter

Hourly Weather History & Observations

Time (MST) Temp. Windchill Dew Point Humidity Pressure Visibility Wind Dir Wind Speed Gust Speed Precip Events Conditions
12:16 AM 17.6 °F 12.3 °F 14.0 °F 86% 30.14 in - East 3.5 mph - N/A   Unknown
12:35 AM 19.4 °F 12.8 °F 17.6 °F 93% 30.14 in - ESE 4.6 mph - N/A   Unknown
12:56 AM 19.4 °F - 15.8 °F 86% 30.14 in - Calm Calm - N/A   Overcast
1:16 AM 17.6 °F 12.3 °F 14.0 °F 86% 30.14 in - South 3.5 mph - N/A   Overcast
1:36 AM 15.8 °F - 12.2 °F 86% 30.14 in - Calm Calm - N/A   Overcast
1:56 AM 14.0 °F - 12.2 °F 93% 30.15 in - Calm Calm - N/A   Unknown
2:16 AM 14.0 °F 6.5 °F 12.2 °F 93% 30.16 in - SE 4.6 mph - N/A   Overcast
2:36 AM 14.0 °F 6.5 °F 12.2 °F 93% 30.16 in - East 4.6 mph - N/A   Mostly Cloudy
2:56 AM 14.0 °F 6.5 °F 10.4 °F 86% 30.16 in - East 4.6 mph - N/A   Unknown
3:16 AM 10.4 °F 4.0 °F 6.8 °F 85% 30.16 in - NNW 3.5 mph - N/A   Mostly Cloudy
3:36 AM 8.6 °F - 5.0 °F 85% 30.16 in - Calm Calm - N/A   Unknown
3:56 AM 8.6 °F - 5.0 °F 85% 30.17 in - Calm Calm - N/A   Unknown
4:16 AM 3.2 °F - 1.4 °F 92% 30.17 in - Calm Calm - N/A   Unknown
4:36 AM 3.2 °F - -0.4 °F 85% 30.18 in - Calm Calm - N/A   Unknown
5:16 AM 1.4 °F - -4.0 °F 78% 30.19 in - Calm Calm - N/A   Clear
5:35 AM -0.4 °F - -4.0 °F 85% 30.19 in - Calm Calm - N/A   Mostly Cloudy
5:56 AM 1.4 °F - -4.0 °F 78% 30.20 in - Calm Calm - N/A   Overcast
6:16 AM 1.4 °F - -4.0 °F 78% 30.21 in - Calm Calm - N/A   Overcast
6:36 AM 1.4 °F - -2.2 °F 85% 30.21 in - Calm Calm - N/A   Overcast
6:56 AM 1.4 °F - -4.0 °F 78% 30.22 in - Calm Calm - N/A Snow Light Snow
7:15 AM 1.4 °F - -4.0 °F 78% 30.22 in - Calm Calm - N/A   Overcast
7:35 AM 3.2 °F - -0.4 °F 85% 30.24 in - Calm Calm - N/A   Overcast
7:56 AM 3.2 °F - -0.4 °F 85% 30.24 in - Calm Calm - N/A Snow Light Snow
8:16 AM 3.2 °F - -0.4 °F 85% 30.26 in - Calm Calm - N/A   Overcast
8:36 AM 5.0 °F - 1.4 °F 85% 30.26 in - Calm Calm - N/A Snow Light Snow
8:56 AM 8.6 °F - 3.2 °F 79% 30.27 in - Calm Calm - N/A   Overcast
9:16 AM 8.6 °F - 3.2 °F 79% 30.27 in - Calm Calm - N/A   Overcast
9:36 AM 10.4 °F - 5.0 °F 79% 30.27 in - Calm Calm - N/A Snow Light Snow
9:56 AM 10.4 °F - 5.0 °F 79% 30.27 in - Calm Calm - N/A Snow Light Snow
10:16 AM 14.0 °F - 8.6 °F 79% 30.27 in - Calm Calm - N/A Snow Light Snow
10:36 AM 14.0 °F - 6.8 °F 73% 30.27 in - Calm Calm - N/A Snow Light Snow
10:56 AM 14.0 °F - 6.8 °F 73% 30.27 in - Calm Calm - N/A Snow Light Snow
11:15 AM 17.6 °F - 10.4 °F 73% 30.27 in - Calm Calm - N/A   Clear
11:35 AM 19.4 °F - 10.4 °F 68% 30.26 in - Calm Calm - N/A   Clear
11:55 AM 19.4 °F - 8.6 °F 63% 30.25 in - Calm Calm - N/A   Clear
12:16 PM 21.2 °F - 8.6 °F 58% 30.23 in - Calm Calm - N/A   Clear
12:36 PM 19.4 °F - 8.6 °F 63% 30.22 in - Calm Calm - N/A   Clear
12:56 PM 19.4 °F - 10.4 °F 68% 30.22 in - Calm Calm - N/A   Clear
1:16 PM 19.4 °F - 8.6 °F 63% 30.21 in - Calm Calm - N/A   Clear
1:36 PM 19.4 °F - 10.4 °F 68% 30.19 in - Calm Calm - N/A   Clear
1:56 PM 21.2 °F - 10.4 °F 63% 30.18 in - Calm Calm - N/A   Clear
2:16 PM 21.2 °F - 10.4 °F 63% 30.17 in - Calm Calm - N/A   Clear
2:35 PM 23.0 °F - 10.4 °F 59% 30.17 in - Calm Calm - N/A   Clear
2:55 PM 21.2 °F - 10.4 °F 63% 30.16 in - Calm Calm - N/A   Clear
3:15 PM 21.2 °F - 10.4 °F 63% 30.16 in - Calm Calm - N/A   Clear
3:36 PM 21.2 °F - 10.4 °F 63% 30.16 in - Calm Calm - N/A   Clear
3:56 PM 21.2 °F - 10.4 °F 63% 30.14 in - Calm Calm - N/A   Clear
4:16 PM 21.2 °F - 10.4 °F 63% 30.14 in - Calm Calm - N/A   Clear
4:36 PM 19.4 °F - 10.4 °F 68% 30.14 in - Calm Calm - N/A   Clear
4:55 PM 19.4 °F - 10.4 °F 68% 30.14 in - Calm Calm - N/A   Clear
5:16 PM 17.6 °F - 10.4 °F 73% 30.14 in - Calm Calm - N/A   Clear
5:36 PM 10.4 °F 4.0 °F 5.0 °F 79% 30.14 in - East 3.5 mph - N/A   Clear
5:55 PM 10.4 °F - 5.0 °F 79% 30.14 in - Calm Calm - N/A   Clear
6:16 PM 8.6 °F - 3.2 °F 79% 30.15 in - Calm Calm - N/A   Unknown
6:35 PM 5.0 °F - 1.4 °F 85% 30.15 in - Calm Calm - N/A   Unknown
6:56 PM 3.2 °F - -0.4 °F 85% 30.15 in - Calm Calm - N/A   Unknown
7:16 PM 1.4 °F - -0.4 °F 92% 30.14 in - Calm Calm - N/A   Unknown
7:36 PM 1.4 °F - -2.2 °F 85% 30.15 in - Calm Calm - N/A   Unknown
7:56 PM -0.4 °F - -4.0 °F 85% 30.15 in - Calm Calm - N/A   Unknown
8:16 PM -0.4 °F - -4.0 °F 85% 30.15 in - Calm Calm - N/A   Unknown
8:36 PM -0.4 °F - -5.8 °F 78% 30.15 in - Calm Calm - N/A   Unknown
8:56 PM -2.2 °F - -7.6 °F 78% 30.14 in - Calm Calm - N/A   Mostly Cloudy
9:16 PM -4.0 °F - -7.6 °F 85% 30.14 in - Calm Calm - N/A   Mostly Cloudy
9:36 PM -4.0 °F - -9.4 °F 78% 30.14 in - Calm Calm - N/A   Mostly Cloudy
9:56 PM -2.2 °F - -7.6 °F 78% 30.14 in - Calm Calm - N/A   Overcast
10:16 PM -4.0 °F - -7.6 °F 85% 30.14 in - Calm Calm - N/A   Overcast
10:35 PM -4.0 °F - -7.6 °F 85% 30.13 in - Calm Calm - N/A   Overcast
10:56 PM -4.0 °F - -7.6 °F 85% 30.12 in - Calm Calm - N/A   Overcast
11:16 PM -5.8 °F - -9.4 °F 84% 30.13 in - Calm Calm - N/A   Overcast
11:36 PM -5.8 °F - -9.4 °F 84% 30.14 in - Calm Calm - N/A   Overcast
11:56 PM -4.0 °F - -9.4 °F 78% 30.13 in - Calm Calm - N/A   Overcast